Yakima, WA

2:20 AM PST on January 16, 2018 (GMT -0800)
Yakima Air Term-McAllister

Weather History for KYKM - July, 2012

Change the Weather History Date:

Tuesday, July 17, 2012

  Actual Average Record
Temperature  
Mean Temperature 78 °F 71 °F  
Max Temperature 94 °F 89 °F 105 °F (1960)
Min Temperature 61 °F 54 °F 41 °F (1955)
Degree Days  
Heating Degree Days 0 1  
Month to date heating degree days 8 17  
Since 1 June heating degree days 120 115  
Since 1 July heating degree days 8 17  
Cooling Degree Days 13 7  
Month to date cooling degree days 181 92  
Year to date cooling degree days 259 177  
Since 1 June cooling degree days 235 157  
Growing Degree Days 27 (Base 50)    
Moisture  
Dew Point 56 °F    
Average Humidity 57    
Maximum Humidity 84    
Minimum Humidity 30    
Precipitation  
Precipitation T in 0.00 in 0.47 in (1999)
Month to date precipitation 0.04 0.14  
Year to date precipitation 5.26 4.43  
Snow  
Snow 0.00 in 0.00 in 0.00 in (2002)
Month to date snowfall 0.0 0.0  
Year to date snowfall 21.5 8.6  
Since 1 July snowfall 0.0 0.0  
Snow Depth 0.00 in    
Sea Level Pressure  
Sea Level Pressure 29.77 in    
Wind  
Wind Speed 6 mph (West)    
Max Wind Speed 18 mph    
Max Gust Speed 22 mph    
Visibility 10 miles    
Events Rain , Thunderstorm    
T = Trace of Precipitation, MM = Missing Value Source: NWS Daily Summary

Daily Weather History Graph

Daily Weather History Graph

Search for Another Location

Airport or City:

Trip Planner

Search our weather history database for the weather conditions in past years. The results will help you decide how hot, cold, wet, or windy it might be!

Date:

Astronomy

Jul. 17, 2012 Rise Set
Actual Time 5:26 AM PDT 8:49 PM PDT
Civil Twilight 4:49 AM PDT 9:26 PM PDT
Nautical Twilight 4:00 AM PDT 10:15 PM PDT
Astronomical Twilight 2:57 AM PDT 11:17 PM PDT
Moon 4:08 AM PDT (7/17) 7:40 PM PDT (7/17)
Length of Visible Light 16h 37m
Length of Day
15h 23m
Waning Crescent, 2% of the Moon is Illuminated
Jul 17
Waning Crescent
Jul 18
New
Jul 26
First Quarter
Aug 1
Full
Aug 9
Last Quarter

Hourly Weather History & Observations

Time (PDT) Temp. Heat Index Dew Point Humidity Pressure Visibility Wind Dir Wind Speed Gust Speed Precip Events Conditions
12:53 AM 66.9 °F - 60.1 °F 79% 29.80 in 9.0 mi West 4.6 mph - 0.03 in Rain Light Rain
1:53 AM 68.0 °F - 57.9 °F 70% 29.76 in 10.0 mi WSW 16.1 mph - 0.00 in   Partly Cloudy
2:30 AM 69.8 °F - 57.2 °F 64% 29.77 in 10.0 mi WNW 10.4 mph - N/A   Partly Cloudy
2:53 AM 69.1 °F - 57.0 °F 65% 29.74 in 10.0 mi SSW 3.5 mph - N/A   Clear
3:53 AM 66.9 °F - 57.0 °F 70% 29.76 in 10.0 mi WSW 5.8 mph - N/A   Clear
4:53 AM 63.0 °F - 57.0 °F 81% 29.75 in 10.0 mi West 3.5 mph - N/A   Clear
5:53 AM 63.0 °F - 55.9 °F 78% 29.77 in 10.0 mi West 3.5 mph - N/A   Clear
6:53 AM 64.9 °F - 57.9 °F 78% 29.78 in 10.0 mi West 5.8 mph - N/A   Partly Cloudy
7:53 AM 71.1 °F - 59.0 °F 66% 29.80 in 10.0 mi Calm Calm - N/A   Clear
8:53 AM 75.9 °F - 60.1 °F 58% 29.80 in 10.0 mi WNW 4.6 mph - N/A   Clear
9:53 AM 78.1 °F - 59.0 °F 52% 29.81 in 10.0 mi WSW 8.1 mph - N/A   Clear
10:53 AM 82.9 °F 82.4 °F 57.0 °F 41% 29.79 in 10.0 mi North 8.1 mph - N/A   Clear
11:53 AM 84.0 °F 83.5 °F 57.9 °F 41% 29.78 in 10.0 mi West 4.6 mph - N/A   Clear
12:53 PM 88.0 °F 86.7 °F 57.0 °F 35% 29.77 in 10.0 mi SW 5.8 mph - N/A   Partly Cloudy
1:53 PM 90.0 °F 88.6 °F 57.0 °F 33% 29.76 in 10.0 mi ESE 4.6 mph - N/A   Clear
2:53 PM 91.0 °F 88.9 °F 55.0 °F 29% 29.74 in 10.0 mi SE 4.6 mph - N/A   Scattered Clouds
3:53 PM 91.9 °F 90.0 °F 55.0 °F 29% 29.73 in 10.0 mi Calm Calm - N/A   Scattered Clouds
4:53 PM 91.9 °F 90.3 °F 55.9 °F 30% 29.72 in 10.0 mi Variable 6.9 mph - N/A   Clear
5:53 PM 91.0 °F 89.7 °F 57.0 °F 32% 29.72 in 10.0 mi SSE 4.6 mph - N/A   Mostly Cloudy
6:53 PM 91.0 °F 88.9 °F 55.0 °F 29% 29.73 in 10.0 mi South 8.1 mph - N/A   Mostly Cloudy
7:53 PM 80.1 °F - 51.1 °F 36% 29.75 in 10.0 mi NNW 11.5 mph 20.7 mph N/A   Mostly Cloudy
8:38 PM 78.8 °F - 51.8 °F 39% 29.81 in 10.0 mi Variable 3.5 mph - N/A Thunderstorm Thunderstorm
8:53 PM 78.1 °F - 52.0 °F 40% 29.80 in 10.0 mi NNW 5.8 mph - N/A Thunderstorm Thunderstorm
9:31 PM 78.8 °F - 53.6 °F 42% 29.82 in 10.0 mi NNW 6.9 mph - N/A   Partly Cloudy
9:53 PM 77.0 °F - 54.0 °F 45% 29.79 in 10.0 mi North 9.2 mph - N/A   Clear
10:53 PM 75.0 °F - 55.9 °F 51% 29.81 in 10.0 mi North 9.2 mph - N/A   Clear
11:53 PM 72.0 °F - 57.9 °F 61% 29.81 in 10.0 mi Variable 3.5 mph - N/A   Clear